Regional Weather Roundup
Issued by NWS

Home | Current Version | Previous Version | Text Only | Print | Product List | Glossary On
Versions: 1 2 3 4 5 6 7 8 9 10 11 12 13 14 15 16 17 18 19 20 21 22 23 24 25 26 27 28 29 30 31 32 33 34 35 36 37 38 39 40 41 42 43 44 45 46 47 48 49 50
994
ASUS45 KREV 241610
RWRNV
NEVADA REGIONAL WEATHER ROUNDUP
NATIONAL WEATHER SERVICE RENO NV
900 AM PDT TUE MAY 24 2016

NOTE: "FAIR" INDICATES FEW OR NO CLOUDS BELOW 12,000 FEET WITH NO
SIGNIFICANT WEATHER AND/OR OBSTRUCTIONS TO VISIBILITY.

NVZ001-003-004-241700-
WESTERN NEVADA

CITY           SKY/WX    TMP DP  RH WIND       PRES   REMARKS
RENO           PTSUNNY   54  39  57 SW3       29.92R
CARSON CITY    FAIR      48  39  71 SW7       29.95R
MINDEN         CLOUDY    46  43  87 SW3       29.95R
SLIDE MTN        N/A     30  30 100 NE5         N/A
PYRAMID LAKE     N/A     54 N/A N/A MISG        N/A
FALLON         CLOUDY    53  41  63 SW12      29.89R
LOVELOCK       PTSUNNY   58  34  40 NE6       29.87R
HAWTHORNE      PTSUNNY   50  43  76 CALM      29.92R
$$

NVZ002-CAZ072-073-241700-
NORTHERN AND CENTRAL SIERRA

CITY           SKY/WX    TMP DP  RH WIND       PRES   REMARKS
S. LAKE TAHOE  CLOUDY    39  36  89 S3        29.95S
TRUCKEE        CLOUDY    45  39  81 CALM      29.95R
SQUAW VLY 8000 NOT AVBL
SUSANVILLE     SUNNY     54  39  58 NW6       29.93R
BLUE CANYON    CLOUDY    44  38  79 W3        29.96R
MAMMOTH LAKES  FAIR      48  21  34 NW3       29.93R
BRIDGEPORT     CLOUDY    40  34  79 VRB3      29.92R
$$

NVZ030-031-036-241700-
NORTHERN NEVADA

CITY           SKY/WX    TMP DP  RH WIND       PRES   REMARKS
ELKO           CLOUDY    52  40  63 NE7       29.87R
WINNEMUCCA     CLOUDY    56  35  45 NW9       29.87R
WENDOVER       PTSUNNY   57  37  47 NW24      29.83F
$$

NVZ035-037-241700-
CENTRAL NEVADA

CITY           SKY/WX    TMP DP  RH WIND       PRES   REMARKS
ELY            PTSUNNY   50  37  61 VRB6      29.89S
EUREKA           N/A     51  35  54 NE3       29.86R
$$

NVZ013-014-241700-
SOUTH CENTRAL NEVADA

CITY           SKY/WX    TMP DP  RH WIND       PRES   REMARKS
TONOPAH        SUNNY     53  35  50 NW16G23   29.88R
$$

NVZ017-020-022-241700-
SOUTHERN NEVADA

CITY           SKY/WX    TMP DP  RH WIND       PRES   REMARKS
LAS VEGAS      MOSUNNY   68  36  30 SW16G26   29.78R
N. LAS VEGAS   SUNNY     68  36  30 S21       29.79R
NELLIS AFB     SUNNY     69  38  32 S21       29.80R
HENDERSON      SUNNY     66  37  34 S21G29    29.84R
MERCURY        SUNNY     61  37  41 SW24G33   29.81R
$$




USA.gov is the U.S. government's official web portal to all federal, state and local government web resources and services.